Time,TemperatureF,DewpointF,PressureIn,WindDirection,WindDirectionDegrees,WindSpeedMPH,WindSpeedGustMPH,Humidity,HourlyPrecipIn,Conditions,Clouds,dailyrainin,SoftwareType,DateUTC
2013-09-29 00:13:00,68.0,66.0,29.90,West,265,3.0,7.0,93,0.00,,,0.00,,2013-09-29 05:13:00,
2013-09-29 00:22:00,65.0,63.0,29.90,WNW,283,5.0,10.0,92,0.00,,,0.00,,2013-09-29 05:22:00,
2013-09-29 00:52:00,63.0,62.0,29.91,West,277,3.0,6.0,95,0.00,,,0.00,,2013-09-29 05:52:00,
2013-09-29 01:12:00,63.0,62.0,29.91,WNW,284,4.0,7.0,95,0.00,,,0.00,,2013-09-29 06:12:00,
2013-09-29 01:22:00,62.0,61.0,29.92,West,276,5.0,10.0,96,0.00,,,0.00,,2013-09-29 06:22:00,
2013-09-29 01:42:00,61.0,60.0,29.92,West,277,4.0,14.0,96,0.00,,,0.00,,2013-09-29 06:42:00,
2013-09-29 01:52:00,61.0,60.0,29.93,WNW,285,4.0,11.0,96,0.00,,,0.00,,2013-09-29 06:52:00,
2013-09-29 02:11:00,60.0,59.0,29.93,WNW,285,4.0,11.0,95,0.00,,,0.00,,2013-09-29 07:11:00,
2013-09-29 02:22:00,59.0,58.0,29.95,North,355,2.0,8.0,95,0.00,,,0.00,,2013-09-29 07:22:00,
2013-09-29 02:43:00,58.0,57.0,29.94,NNW,344,1.0,4.0,95,0.00,,,0.00,,2013-09-29 07:43:00,
2013-09-29 02:52:00,58.0,57.0,29.94,WNW,289,1.0,5.0,95,0.00,,,0.00,,2013-09-29 07:52:00,
2013-09-29 03:12:00,58.0,57.0,29.95,West,277,3.0,6.0,95,0.00,,,0.00,,2013-09-29 08:12:00,
2013-09-29 03:22:00,57.0,56.0,29.95,NW,304,2.0,7.0,95,0.00,,,0.00,,2013-09-29 08:22:00,
2013-09-29 03:42:00,57.0,56.0,29.95,WNW,288,2.0,4.0,95,0.00,,,0.00,,2013-09-29 08:42:00,
2013-09-29 03:52:00,56.0,55.0,29.95,WNW,290,2.0,4.0,95,0.00,,,0.00,,2013-09-29 08:52:00,
2013-09-29 04:11:00,56.0,55.0,29.96,WNW,296,1.0,3.0,95,0.00,,,0.00,,2013-09-29 09:11:00,
2013-09-29 04:22:00,55.0,54.0,29.96,WNW,297,1.0,2.0,95,0.00,,,0.00,,2013-09-29 09:22:00,
2013-09-29 04:43:00,55.0,54.0,29.96,WNW,297,1.0,2.0,95,0.00,,,0.00,,2013-09-29 09:43:00,
2013-09-29 04:53:00,54.0,53.0,29.96,WNW,297,0.0,2.0,96,0.00,,,0.00,,2013-09-29 09:53:00,
2013-09-29 05:12:00,53.0,52.0,29.96,WNW,297,0.0,2.0,96,0.00,,,0.00,,2013-09-29 10:12:00,
2013-09-29 05:23:00,53.0,52.0,29.96,WNW,297,0.0,3.0,96,0.00,,,0.00,,2013-09-29 10:23:00,
2013-09-29 05:43:00,53.0,52.0,29.97,WNW,297,1.0,2.0,96,0.00,,,0.00,,2013-09-29 10:43:00,
2013-09-29 05:53:00,52.0,51.0,29.97,WNW,297,1.0,2.0,96,0.00,,,0.00,,2013-09-29 10:53:00,
2013-09-29 06:12:00,52.0,51.0,29.97,WNW,297,0.0,2.0,97,0.00,,,0.00,,2013-09-29 11:12:00,
2013-09-29 06:22:00,52.0,51.0,29.98,WNW,297,0.0,1.0,97,0.00,,,0.00,,2013-09-29 11:22:00,
2013-09-29 06:52:00,51.0,50.0,29.98,WNW,297,1.0,2.0,97,0.00,,,0.00,,2013-09-29 11:52:00,
2013-09-29 07:12:00,51.0,50.0,29.98,WNW,297,0.0,2.0,97,0.00,,,0.00,,2013-09-29 12:12:00,
2013-09-29 07:21:00,52.0,51.0,29.98,WNW,297,2.0,4.0,98,0.00,,,0.00,,2013-09-29 12:21:00,
2013-09-29 07:52:00,53.0,52.0,29.99,WNW,290,0.0,4.0,98,0.00,,,0.00,,2013-09-29 12:52:00,
2013-09-29 08:11:00,53.0,52.0,29.99,WNW,284,1.0,5.0,98,0.00,,,0.00,,2013-09-29 13:11:00,
2013-09-29 08:22:00,53.0,52.0,30.00,WNW,292,1.0,4.0,98,0.00,,,0.00,,2013-09-29 13:22:00,
2013-09-29 08:53:00,55.0,54.0,29.99,WNW,291,2.0,4.0,98,0.00,,,0.00,,2013-09-29 13:53:00,
2013-09-29 09:12:00,55.0,54.0,30.00,WNW,282,1.0,4.0,98,0.00,,,0.00,,2013-09-29 14:12:00,
2013-09-29 09:21:00,55.0,54.0,30.01,North,355,1.0,4.0,98,0.00,,,0.00,,2013-09-29 14:21:00,
2013-09-29 09:43:00,56.0,55.0,30.01,NNW,347,1.0,5.0,98,0.00,,,0.00,,2013-09-29 14:43:00,
2013-09-29 09:52:00,56.0,55.0,30.01,WNW,302,1.0,6.0,96,0.00,,,0.00,,2013-09-29 14:52:00,
2013-09-29 10:12:00,56.0,55.0,30.02,West,276,2.0,7.0,95,0.00,,,0.00,,2013-09-29 15:12:00,
2013-09-29 10:22:00,57.0,55.0,30.01,NNE,13,2.0,6.0,93,0.00,,,0.00,,2013-09-29 15:22:00,
2013-09-29 10:45:00,58.0,55.0,30.02,NNE,22,2.0,6.0,89,0.00,,,0.00,,2013-09-29 15:45:00,
2013-09-29 10:54:00,59.0,56.0,30.02,WNW,301,1.0,5.0,89,0.00,,,0.00,,2013-09-29 15:54:00,
2013-09-29 11:13:00,61.0,56.0,30.02,North,360,2.0,7.0,85,0.00,,,0.00,,2013-09-29 16:13:00,
2013-09-29 11:24:00,62.0,56.0,30.02,North,5,1.0,6.0,82,0.00,,,0.00,,2013-09-29 16:24:00,
2013-09-29 11:44:00,62.0,55.0,30.02,NE,36,3.0,8.0,79,0.00,,,0.00,,2013-09-29 16:44:00,
2013-09-29 11:54:00,63.0,56.0,30.02,WNW,291,2.0,7.0,77,0.00,,,0.00,,2013-09-29 16:54:00,
2013-09-29 12:12:00,64.0,54.0,30.02,NW,325,3.0,6.0,71,0.00,,,0.00,,2013-09-29 17:12:00,
2013-09-29 12:24:00,65.0,55.0,30.01,NW,305,1.0,7.0,69,0.00,,,0.00,,2013-09-29 17:24:00,
2013-09-29 12:43:00,66.0,53.0,30.02,North,5,3.0,7.0,62,0.00,,,0.00,,2013-09-29 17:43:00,
2013-09-29 12:52:00,66.0,52.0,30.01,NNE,17,4.0,8.0,61,0.00,,,0.00,,2013-09-29 17:52:00,
2013-09-29 13:13:00,66.0,52.0,30.01,North,11,3.0,7.0,61,0.00,,,0.00,,2013-09-29 18:13:00,
2013-09-29 13:22:00,67.0,53.0,30.00,NNE,13,2.0,5.0,60,0.00,,,0.00,,2013-09-29 18:22:00,
2013-09-29 13:42:00,68.0,54.0,29.99,NNE,17,4.0,8.0,60,0.00,,,0.00,,2013-09-29 18:42:00,
2013-09-29 13:52:00,68.0,52.0,29.99,NNE,25,4.0,7.0,57,0.00,,,0.00,,2013-09-29 18:52:00,
2013-09-29 14:11:00,69.0,52.0,29.98,North,360,4.0,8.0,55,0.00,,,0.00,,2013-09-29 19:11:00,
2013-09-29 14:22:00,70.0,51.0,29.97,North,360,2.0,9.0,51,0.00,,,0.00,,2013-09-29 19:22:00,
2013-09-29 14:42:00,70.0,51.0,29.97,NE,52,4.0,7.0,51,0.00,,,0.00,,2013-09-29 19:42:00,
2013-09-29 14:52:00,70.0,49.0,29.96,NE,46,4.0,8.0,48,0.00,,,0.00,,2013-09-29 19:52:00,
2013-09-29 15:12:00,70.0,50.0,29.96,NNE,21,2.0,7.0,49,0.00,,,0.00,,2013-09-29 20:12:00,
2013-09-29 15:22:00,71.0,51.0,29.96,NNE,24,3.0,8.0,49,0.00,,,0.00,,2013-09-29 20:22:00,
2013-09-29 15:42:00,71.0,49.0,29.96,NNE,23,1.0,9.0,46,0.00,,,0.00,,2013-09-29 20:42:00,
2013-09-29 15:52:00,72.0,48.0,29.96,NNE,24,4.0,9.0,43,0.00,,,0.00,,2013-09-29 20:52:00,
2013-09-29 16:11:00,72.0,49.0,29.96,NE,50,4.0,8.0,44,0.00,,,0.00,,2013-09-29 21:11:00,
2013-09-29 16:21:00,72.0,48.0,29.95,NE,52,3.0,6.0,43,0.00,,,0.00,,2013-09-29 21:21:00,
2013-09-29 16:44:00,72.0,48.0,29.95,ENE,57,4.0,7.0,43,0.00,,,0.00,,2013-09-29 21:44:00,
2013-09-29 16:54:00,71.0,47.0,29.95,NNE,33,4.0,8.0,43,0.00,,,0.00,,2013-09-29 21:54:00,
2013-09-29 17:14:00,71.0,47.0,29.95,NE,38,5.0,9.0,43,0.00,,,0.00,,2013-09-29 22:14:00,
2013-09-29 17:24:00,70.0,46.0,29.95,NNE,15,3.0,6.0,42,0.00,,,0.00,,2013-09-29 22:24:00,
2013-09-29 17:53:00,70.0,48.0,29.95,NE,39,3.0,6.0,46,0.00,,,0.00,,2013-09-29 22:53:00,
2013-09-29 18:12:00,69.0,48.0,29.95,ENE,64,2.0,7.0,48,0.00,,,0.00,,2013-09-29 23:12:00,
2013-09-29 18:23:00,68.0,49.0,29.96,NE,54,2.0,7.0,50,0.00,,,0.00,,2013-09-29 23:23:00,
2013-09-29 18:43:00,67.0,48.0,29.95,ENE,58,4.0,7.0,50,0.00,,,0.00,,2013-09-29 23:43:00,
2013-09-29 18:53:00,67.0,48.0,29.95,ENE,58,4.0,7.0,50,0.00,,,0.00,,2013-09-29 23:53:00,
2013-09-29 19:11:00,61.0,47.0,29.96,ENE,74,1.0,3.0,60,0.00,,,0.00,,2013-09-30 00:11:00,
2013-09-29 20:11:00,55.0,47.0,29.96,ENE,74,1.0,3.0,75,0.00,,,0.00,,2013-09-30 01:11:00,
2013-09-29 20:22:00,54.0,47.0,29.96,ENE,74,1.0,3.0,77,0.00,,,0.00,,2013-09-30 01:22:00,
2013-09-29 20:42:00,53.0,46.0,29.97,ENE,74,1.0,3.0,78,0.00,,,0.00,,2013-09-30 01:42:00,
2013-09-29 20:52:00,54.0,47.0,29.97,ENE,78,2.0,4.0,77,0.00,,,0.00,,2013-09-30 01:52:00,
2013-09-29 21:12:00,54.0,47.0,29.97,ENE,78,1.0,3.0,77,0.00,,,0.00,,2013-09-30 02:12:00,
2013-09-29 21:22:00,53.0,47.0,29.97,ENE,78,1.0,2.0,79,0.00,,,0.00,,2013-09-30 02:22:00,
2013-09-29 21:42:00,52.0,47.0,29.97,ENE,78,1.0,2.0,83,0.00,,,0.00,,2013-09-30 02:42:00,
2013-09-29 21:52:00,52.0,47.0,29.97,ENE,78,1.0,3.0,84,0.00,,,0.00,,2013-09-30 02:52:00,
2013-09-29 22:12:00,51.0,47.0,29.97,ENE,78,0.0,2.0,85,0.00,,,0.00,,2013-09-30 03:12:00,
2013-09-29 22:22:00,51.0,47.0,29.97,ENE,78,1.0,2.0,86,0.00,,,0.00,,2013-09-30 03:22:00,
2013-09-29 22:44:00,50.0,47.0,29.97,ENE,78,0.0,1.0,88,0.00,,,0.00,,2013-09-30 03:44:00,
2013-09-29 22:55:00,49.0,46.0,29.97,ENE,78,1.0,2.0,89,0.00,,,0.00,,2013-09-30 03:55:00,
2013-09-29 23:14:00,49.0,46.0,29.97,ENE,78,1.0,2.0,90,0.00,,,0.00,,2013-09-30 04:14:00,
2013-09-29 23:25:00,48.0,45.0,29.97,ENE,78,0.0,2.0,90,0.00,,,0.00,,2013-09-30 04:25:00,
2013-09-29 23:44:00,48.0,45.0,29.97,ENE,78,0.0,2.0,91,0.00,,,0.00,,2013-09-30 04:44:00,
2013-09-29 23:53:00,47.0,45.0,29.97,ENE,78,0.0,1.0,92,0.00,,,0.00,,2013-09-30 04:53:00,